BMCB-38 Weather Reports


time (UTC)temp
C
wind
direction
speed
KPH
gust
KPH
rain 1hr
cm
rain 24hr
cm
rain mn
cm
humidity
%
barometer
mb
20260503055035 13 0 0.0 0.0 0.00 0.00 0.00 86 1011.8
20260503053038 13 0 0.0 0.0 0.00 0.00 0.00 86 1012.0
20260503052035 13 0 0.0 0.0 0.00 0.00 0.00 87 1012.0
20260503051024 13 0 0.0 0.0 0.00 0.00 0.00 87 1012.0
20260503050036 13 0 0.0 0.0 0.00 0.00 0.00 88 1012.0
20260503043036 14 0 0.0 0.0 0.00 0.00 0.00 86 1012.1
20260503042023 14 0 0.0 0.0 0.00 0.00 0.00 86 1012.1
20260503041036 14 0 0.0 0.0 0.00 0.00 0.00 86 1012.2
20260503040037 14 0 0.0 0.0 0.00 0.03 0.00 84 1012.2
20260503035036 14 0 0.0 0.0 0.00 0.03 0.00 84 1012.2
20260503034031 15 0 0.0 0.0 0.00 0.03 0.00 82 1012.3
20260503033027 15 0 0.0 0.0 0.00 0.03 0.00 82 1012.3
20260503032036 15 0 0.0 0.0 0.00 0.03 0.00 81 1012.2
20260503031020 15 0 0.0 0.0 0.00 0.03 0.00 82 1012.2
20260503030023 15 0 0.0 0.0 0.00 0.03 0.00 83 1012.3
20260503024032 15 0 0.0 0.0 0.00 0.03 0.00 82 1012.4
20260503022030 15 0 0.0 0.0 0.00 0.03 0.00 82 1012.5
20260503021030 15 0 0.0 0.0 0.00 0.03 0.00 84 1012.6
20260503020024 15 0 0.0 0.0 0.00 0.03 0.00 85 1012.5
20260503015033 14 0 0.0 0.0 0.00 0.03 0.00 87 1012.7
20260503014032 15 0 0.0 0.0 0.00 0.03 0.00 82 1012.7
20260503013036 15 0 0.0 0.0 0.00 0.03 0.00 80 1012.8
20260503011036 15 0 0.0 0.0 0.00 0.03 0.00 84 1013.0
20260503010036 15 0 0.0 0.0 0.00 0.03 0.00 85 1013.1
20260503004035 15 0 0.0 0.0 0.00 0.03 0.00 86 1013.3
20260503003036 15 0 0.0 0.0 0.00 0.03 0.00 85 1013.2
20260503002034 15 0 0.0 0.0 0.00 0.03 0.00 85 1013.2
20260503001032 15 0 0.0 0.0 0.00 0.03 0.00 84 1013.3
20260503000039 15 0 0.0 0.0 0.00 0.03 0.00 82 1013.4
20260502235039 15 0 0.0 0.0 0.00 0.03 0.00 82 1013.5
20260502234035 15 0 0.0 0.0 0.00 0.03 0.00 84 1013.6
20260502233038 15 0 0.0 0.0 0.00 0.03 0.00 85 1013.6
20260502232037 15 0 0.0 0.0 0.00 0.03 0.00 83 1013.5
20260502230035 16 0 0.0 0.0 0.00 0.03 0.00 79 1013.6
20260502225038 15 0 0.0 0.0 0.00 0.03 0.00 83 1013.6
20260502224036 15 0 0.0 0.0 0.00 0.03 0.00 83 1013.6
20260502223037 15 0 0.0 0.0 0.00 0.03 0.00 81 1013.6
20260502221035 15 0 0.0 0.0 0.00 0.03 0.00 82 1013.7
20260502220036 15 0 0.0 0.0 0.00 0.03 0.00 83 1013.7
20260502215037 15 0 0.0 0.0 0.00 0.03 0.03 83 1013.7
20260502214038 15 0 0.0 0.0 0.00 0.03 0.03 83 1013.8
20260502213037 15 0 0.0 0.0 0.00 0.03 0.03 83 1013.8
20260502212036 15 0 0.0 0.0 0.00 0.03 0.03 85 1013.9
20260502211036 15 0 0.0 0.0 0.00 0.03 0.03 85 1013.8
20260502210036 16 0 0.0 0.0 0.00 0.03 0.03 83 1013.8
20260502204039 16 0 0.0 0.0 0.00 0.03 0.03 81 1013.9
20260502203039 16 0 0.0 0.0 0.00 0.03 0.03 79 1014.0
20260502202035 16 0 0.0 0.0 0.00 0.03 0.03 79 1014.0
20260502201027 16 0 0.0 0.0 0.00 0.03 0.03 78 1014.0
20260502194037 17 0 0.0 0.0 0.00 0.03 0.03 75 1014.1
20260502193037 17 0 0.0 0.0 0.00 0.03 0.03 76 1014.1
20260502191035 18 0 0.0 0.0 0.00 0.03 0.03 74 1014.2
20260502185036 18 0 0.0 0.0 0.00 0.03 0.03 72 1014.2
20260502184037 18 0 0.0 0.0 0.00 0.03 0.03 71 1014.2
20260502183037 19 0 0.0 0.0 0.00 0.03 0.03 69 1014.2
20260502181037 21 0 0.0 0.0 0.00 0.03 0.03 64 1014.0
20260502164037 22 0 0.0 0.0 0.00 0.03 0.03 53 1014.0
20260502163037 22 0 0.0 0.0 0.00 0.03 0.03 54 1014.3
20260502162037 22 0 0.0 0.0 0.00 0.03 0.03 53 1014.4
20260502152037 23 0 0.0 0.0 0.00 0.03 0.03 52 1014.9
20260502151040 23 0 0.0 0.0 0.00 0.03 0.03 54 1015.1
20260502123036 21 0 0.0 0.0 0.00 0.03 0.03 59 1017.7
20260502122037 21 0 0.0 0.0 0.00 0.03 0.03 61 1017.7
20260502121031 21 0 0.0 0.0 0.00 0.03 0.03 58 1017.8
20260502115037 21 0 0.0 0.0 0.00 0.03 0.03 58 1018.0
20260502114037 21 0 0.0 0.0 0.00 0.03 0.03 60 1018.2
20260502111037 21 0 0.0 0.0 0.00 0.03 0.03 63 1018.5
20260502110036 21 0 0.0 0.0 0.00 0.03 0.03 63 1018.6
20260502104036 20 0 0.0 0.0 0.00 0.03 0.03 63 1018.7
20260502103037 20 0 0.0 0.0 0.00 0.03 0.03 64 1018.8
20260502102037 20 0 0.0 0.0 0.00 0.03 0.03 63 1018.9
20260502101038 20 0 0.0 0.0 0.00 0.03 0.03 64 1018.9
20260502091037 19 0 0.0 0.0 0.00 0.03 0.03 68 1019.2
20260502070023 13 0 0.0 0.0 0.00 0.03 0.03 79 1020.3
20260502065036 13 0 0.0 0.0 0.00 0.03 0.03 79 1020.3
20260502064037 13 0 0.0 0.0 0.00 0.03 0.03 80 1020.3
20260502063039 12 0 0.0 0.0 0.00 0.03 0.03 80 1020.3
20260502062036 12 0 0.0 0.0 0.00 0.03 0.03 81 1020.3
20260502061040 12 0 0.0 0.0 0.00 0.03 0.03 80 1020.4
20260502060036 12 0 0.0 0.0 0.00 0.03 0.03 79 1020.4